Location: Fredericksburg
(30.2750°N, 98.8720°W)
Time: 17:26:59
(UTC-05:00)

Daily predictions for brighter satellites

Satellite Brightness Start Highest point End
(mag) Time Altitude Azimuth Time Altitude Azimuth Time Altitude Azimuth
Delta 128 3.8 20:10:34 10° WSW 20:15:13 62° S 20:19:38 10° E
Cosmos 1125 Rocket 3.9 20:10:26 10° S 20:15:14 39° E 20:20:02 10° NNE
Cosmos 1707 3.4 20:15:27 10° NNW 20:19:17 60° W 20:23:03 10° S
SeaSat 1 3.3 20:19:39 10° ESE 20:23:56 31° ENE 20:28:14 10° N
Cosmos 2082 Rocket 3.7 20:20:45 10° NNE 20:24:24 17° ENE 20:27:52 10° E
HJ-1C 4.1 20:23:00 10° SE 20:26:06 34° ENE 20:29:14 10° N
Cosmos 1758 3.9 20:22:39 10° SSE 20:26:15 34° E 20:29:52 10° NNE
CZ-2C R/B 2.1 20:25:21 10° NNE 20:26:52 26° E 20:29:13 10° SSE
METEOR-M 4.3 20:22:12 10° S 20:27:31 81° WSW 20:32:52 10° NNW
ALOS 2.4 20:23:43 10° SSE 20:28:14 52° ENE 20:32:46 10° N
Meteor 1-24 Rocket 3.7 20:24:13 10° N 20:29:48 77° E 20:35:35 10° SSE
GPS 2-05 Rocket1 3.6 20:29:19 10° W 20:32:45 49° NNW 20:36:15 10° ENE
Cosmos 1953 2.8 20:29:34 10° SSE 20:33:22 39° E 20:37:09 10° NNE
Cosmos 1271 Rocket 4.2 20:31:10 10° SE 20:33:58 18° E 20:36:46 10° NE
SL-27 R/B 2.5 20:34:48 10° NNW 20:38:24 86° WSW 20:42:02 10° SSE
Cosmos 1766 4.3 20:36:20 10° SSW 20:40:05 49° W 20:43:51 10° N
Cosmos 1934 Rocket 4.4 20:35:26 10° SSW 20:41:31 66° W 20:47:34 10° N
OAO 2 Rocket 3.9 20:36:52 10° SW 20:41:40 40° SSE 20:45:20 17° E
Helios 1B rocket 3.3 20:38:19 10° NE 20:41:47 26° E 20:45:15 10° SSE
Okean 3 Rocket 3.7 20:39:33 10° N 20:43:52 52° E 20:48:10 10° SSE
IUS-7 SRM-1 3.4 20:42:35 10° SW 20:44:22 22° SSE 20:45:19 19° SE
SWAS 4.4 20:42:09 10° S 20:46:20 58° ESE 20:50:32 10° NNE
Tiangong 1 0.8 20:44:35 10° NW 20:47:30 67° NNE 20:48:52 27° ESE
Cosmos 1076 Rocket 4.1 20:44:09 10° NNE 20:48:00 34° E 20:51:11 14° SE
Meteor 1-29 4.3 20:47:12 10° NE 20:49:25 21° E 20:49:25 21° E
Cosmos 1674 3.9 20:48:20 10° NNE 20:51:20 22° E 20:51:30 22° E
Helios 1A 4.0 20:53:10 23° E 20:54:14 25° ENE 20:57:41 10° NNE
Delta 168 3.3 20:52:38 10° WSW 20:56:33 38° S 20:57:52 26° SE
COSMOS 2487 3.7 20:54:10 10° NNE 20:56:56 23° ENE 20:56:56 23° ENE
ISS -2.6 20:55:31 10° WSW 20:58:35 41° NW 21:01:42 10° NNE
Delta 2 Rocket 3.6 20:56:54 10° WNW 21:01:47 74° SSW 21:03:57 29° SE
Cosmos 1818 3.8 20:57:02 10° NNW 21:02:18 49° ENE 21:05:09 25° ESE
GP-B 3.3 21:00:38 12° SSE 21:04:30 45° E 21:08:45 10° NNE
Meteor 1-4 Rocket 3.1 21:02:08 10° SSW 21:05:33 56° W 21:08:57 10° N
Cosmos 1269 Rocket 4.3 21:00:49 10° N 21:05:51 44° ENE 21:08:17 27° SE
CZ-2D R/B 3.2 21:03:33 19° SSE 21:06:10 62° ENE 21:10:00 10° N
Cosmos 372 Rocket 4.0 21:02:46 10° SSW 21:07:51 80° WNW 21:13:00 10° NNE
H-II Stage 2 0.8 21:06:22 10° W 21:08:22 64° S 21:08:28 62° SSE
Cosmos-2242 2.9 21:05:18 10° S 21:09:28 58° E 21:13:38 10° NNE
Cosmos 1766 Rocket 3.9 21:05:13 10° N 21:09:31 45° E 21:11:01 32° SE
Cosmos 468 4.4 21:06:07 10° NNW 21:11:21 78° ENE 21:15:33 16° SSE
Resurs 01 Rocket 1.7 21:08:00 10° S 21:12:23 77° WSW 21:16:49 10° NNW
Cosmos 2016 Rocket 4.5 21:07:53 13° SSE 21:12:53 36° E 21:18:25 10° NNE
In-Cosmos 22 4.5 21:08:04 10° NNW 21:13:18 64° W 21:18:30 10° S
RESURS DK-1 4.2 21:12:58 10° NW 21:16:36 31° WSW 21:20:14 10° SSW
Cosmos 158 Rocket 4.2 21:14:24 10° N 21:19:25 49° ENE 21:20:47 39° ESE
Aurora 2 Rocket 3.6 21:12:42 10° WSW 21:19:57 51° S 21:21:52 36° SE
USA 215 3.1 21:17:03 10° NE 21:23:35 75° SE 21:30:05 10° SW
Meteor 1-21 Rocket 4.2 21:17:51 10° N 21:23:45 83° E 21:29:19 12° S
Cosmos 1470 2.8 21:23:30 10° S 21:27:29 82° W 21:31:27 10° N
Spot 2 Rocket 4.0 21:22:45 10° S 21:27:46 60° WSW 21:32:49 10° NNW
Cosmos 2100 Rocket 3.9 21:23:58 10° S 21:30:15 84° E 21:36:38 10° N
Cosmos 1833 Rocket 2.7 21:25:04 10° NNW 21:30:37 60° ENE 21:31:56 47° ESE
Cosmos 1733 3.2 21:27:00 10° S 21:30:50 77° W 21:34:43 10° N
ATLAS 5 CENTAUR R/B 3.4 21:35:35 10° WSW 21:39:45 33° NW 21:44:12 10° N
Yuri Rocket 4.0 21:39:57 10° W 21:43:27 34° SSW 21:43:27 34° SSW
Cosmos 1340 Rocket 4.0 21:40:37 10° N 21:42:57 33° N 21:42:57 33° N
Envisat 2.8 21:45:57 70° ENE 21:45:57 70° ENE 21:50:58 10° N
OAO 1 4.3 21:44:43 10° WNW 21:50:15 86° SSW 21:50:31 81° SE
Cosmos 1802 Rocket 3.9 21:46:46 10° S 21:52:52 80° W 21:59:03 10° N
Gblst 52 Del rocket 4.3 21:47:42 10° SW 21:53:53 77° NW 21:55:48 43° NNE
ERS-1 Rocket 4.4 22:03:19 28° NNE 22:03:19 28° NNE 22:05:47 10° N
SeaSat 1 4.4 21:57:50 12° SSW 22:01:22 25° WSW 22:05:24 10° NW
Cosmos 2082 Rocket 2.8 22:03:16 10° NNW 22:08:45 52° WSW 22:09:47 45° SW
Meteor 1-16 Rocket 4.5 22:11:26 56° SW 22:12:33 70° W 22:18:28 10° N
Timation 2 Rocket 4.3 22:14:30 10° NNW 22:20:32 56° WSW 22:20:52 56° WSW
H-2A R/B (2) 4.4 23:06:38 10° W 23:08:06 23° WSW 23:08:06 23° WSW
